Theta_e
319 315 310 314 316 315 312 310 310 313 317 317 317 319 321 324 324 326 329 332 334 334 337 339 340 339 340 341 339 338 338 338 338 334 333 334 334 338 335 336 336 333 332 331
315 311 315 317 315 313 312 312 311 314 317 317 317 316 320 323 324 326 327 329 332 333 335 334 335 337 336 335 336 335 333 334 331 329 330 328 328 331 331 334 333 330 328 327
311 314 316 315 314 312 313 310 310 311 315 318 315 309 315 322 325 327 329 331 332 331 330 332 332 332 332 332 332 332 332 332 332 333 329 329 329 328 324 325 324 326 325 324
314 317 313 314 312 313 308 314 312 311 312 304 316 304 309 318 321 324 326 328 327 327 329 329 329 329 328 326 328 329 330 330 330 331 329 329 321 319 320 320 321 321 322 322
312 313 313 312 313 314 311 316 314 312 312 309 305 304 310 311 316 320 323 324 325 325 326 326 325 326 325 325 325 328 329 329 329 329 327 322 321 319 319 319 322 326 324 322
315 320 318 316 315 315 317 315 315 314 313 300 307 309 308 305 316 320 323 323 324 324 325 325 325 324 324 326 325 326 327 327 327 326 324 322 320 320 318 318 317 317 318 319
313 314 317 317 313 318 317 312 303 301 303 300 312 307 312 317 320 321 322 323 323 323 323 323 323 321 323 324 325 324 325 324 325 324 322 320 320 321 320 319 317 319 316 317
308 305 314 317 314 311 311 312 305 298 299 301 310 303 310 320 323 324 324 324 323 323 323 323 322 322 322 324 324 324 323 323 322 322 320 321 320 318 318 318 318 317 317 317
310 309 317 316 316 315 311 310 315 307 309 304 307 312 317 321 321 321 322 322 322 322 322 321 322 323 324 324 325 324 323 321 320 320 320 320 319 319 317 319 320 317 320 318
314 308 314 316 317 318 314 315 306 309 300 297 301 307 305 315 317 320 320 320 322 322 321 321 321 323 324 324 324 324 322 319 319 318 319 317 319 318 318 320 320 320 321 321
316 312 312 314 313 310 312 312 312 311 309 301 298 305 316 317 320 319 320 320 322 322 321 320 320 323 324 323 322 322 321 320 317 318 318 318 316 317 320 319 319 319 320 320
319 315 309 310 316 317 313 311 311 305 304 308 305 305 319 320 322 322 320 320 322 322 321 321 320 323 322 321 321 320 321 318 317 318 317 318 318 320 319 320 320 321 320 321
318 313 306 308 314 316 311 312 312 311 314 306 303 306 319 322 322 322 320 321 321 321 322 321 320 320 321 320 320 320 319 317 317 317 317 316 317 319 320 321 321 320 320 319
326 316 311 305 307 310 308 310 312 311 308 307 307 310 316 318 319 320 321 321 321 321 319 320 320 320 319 320 320 319 319 317 317 317 316 316 317 319 319 321 320 318 319 318
324 312 312 311 310 310 310 309 310 309 310 306 310 309 316 320 320 322 322 321 321 319 318 319 320 320 319 319 320 320 319 318 318 316 316 316 318 319 319 320 321 319 319 318
327 314 313 310 312 311 308 310 310 310 310 311 311 312 320 322 323 322 321 320 320 318 317 318 320 320 319 319 319 320 318 318 318 316 315 316 317 316 319 319 320 320 317 318
319 317 312 307 312 309 306 311 310 311 313 314 310 316 320 318 320 321 321 321 319 317 318 318 320 320 320 320 320 319 318 319 318 316 316 316 316 316 317 318 318 319 317 319
320 319 315 308 310 300 314 318 314 312 315 317 317 318 318 320 322 322 322 323 320 318 318 319 321 321 321 321 321 321 318 318 317 316 315 316 315 316 317 318 319 320 319 319
324 319 311 306 305 309 311 315 313 313 314 319 316 317 318 320 321 320 324 324 320 321 319 321 322 322 323 321 321 320 318 318 316 315 315 315 315 316 316 317 319 319 320 320
322 323 313 309 303 300 315 318 321 320 309 319 316 317 318 319 311 318 325 323 322 322 321 322 322 323 322 321 322 320 318 317 315 315 316 316 316 317 317 318 318 320 321 319
314 314 309 307 306 309 320 321 321 306 312 317 317 316 319 317 323 326 325 322 323 321 322 323 323 323 322 322 322 320 318 317 316 316 317 317 318 319 319 320 320 320 321 319
312 310 308 309 306 303 323 320 311 321 323 321 319 319 318 324 325 324 322 322 321 320 322 322 322 323 324 323 322 319 318 318 317 317 317 317 319 318 318 321 320 320 320 319
309 315 315 314 313 326 326 327 332 327 323 323 322 321 319 323 323 323 320 322 320 319 321 322 323 323 324 324 323 319 319 318 317 317 317 318 319 318 319 320 320 318 319 320
319 322 315 315 318 322 326 327 329 325 326 327 326 324 321 321 324 323 321 323 321 320 321 322 321 321 322 324 324 323 321 319 318 318 317 318 318 317 322 318 317 317 318 315
318 322 316 317 320 322 325 327 327 325 326 327 327 325 322 322 324 323 322 324 323 320 321 322 322 323 322 324 323 324 322 321 319 318 318 319 318 319 320 320 319 317 320 313
318 317 315 314 325 324 324 328 329 326 325 327 325 324 324 321 322 323 323 325 323 320 321 322 322 323 322 323 323 324 324 322 320 319 318 317 316 316 318 316 317 306 301 299
Wind_Speed
16 6 14 13 12 12 5 4 9 6 3 7 11 11 11 9 14 15 15 16 14 15 11 8 8 14 13 14 14 14 13 15 12 10 10 10 9 8 7 6 8 9 9 10
9 6 7 7 5 4 4 24 22 5 5 6 12 11 11 12 13 15 14 14 12 12 12 11 12 13 12 13 12 14 14 14 14 12 10 11 11 6 7 4 7 9 12 11
3 4 4 5 8 19 21 12 4 3 6 7 22 10 7 16 16 15 14 11 11 11 13 13 11 10 11 11 12 14 14 14 14 17 11 10 10 9 10 10 10 8 5 7
3 9 4 11 2 12 10 9 6 3 11 6 15 5 7 3 15 11 12 11 13 11 13 10 10 10 11 12 13 14 14 14 14 16 13 14 12 11 10 10 9 8 7 7
6 10 12 7 10 10 10 10 8 5 14 11 16 2 3 11 17 11 11 10 11 12 10 10 10 11 13 12 12 12 12 13 15 15 15 13 14 11 9 9 10 8 7 8
6 8 9 11 3 4 7 5 4 21 10 9 22 16 9 8 7 10 12 9 8 9 9 10 11 11 11 12 12 10 12 13 14 14 15 15 14 12 10 11 9 9 9 9
9 10 6 4 6 14 14 9 2 5 5 4 7 4 11 8 8 11 10 8 7 5 10 10 12 13 12 12 12 11 13 12 15 16 15 14 13 12 11 13 12 15 11 11
12 9 6 2 7 12 15 8 9 14 11 10 17 6 8 13 12 11 9 7 6 9 10 10 12 12 12 10 11 12 12 16 12 11 14 12 15 12 12 11 11 8 9 8
6 12 7 6 4 6 11 7 11 10 18 11 5 12 13 10 11 10 9 6 7 6 6 9 11 10 9 9 8 10 12 11 8 13 11 14 9 9 9 11 8 7 9 10
4 4 5 9 9 4 4 6 8 6 8 12 8 15 7 10 10 8 7 5 6 3 5 9 10 9 9 10 9 12 12 7 10 12 11 10 7 9 8 9 9 8 10 12
4 5 8 6 5 11 4 3 4 5 6 8 9 8 6 8 12 8 5 5 6 2 8 9 9 9 10 10 11 11 11 13 12 11 11 9 7 7 8 9 10 12 11 10
3 3 3 4 6 1 3 7 5 8 7 3 8 6 5 8 12 8 6 4 8 5 8 9 9 9 10 10 10 10 11 12 11 10 10 10 5 7 9 7 10 11 12 12
6 5 8 3 3 4 5 5 1 2 9 6 11 4 4 9 10 8 6 8 6 4 8 9 9 9 10 8 8 9 11 11 10 8 10 8 6 9 7 8 10 11 12 11
3 1 7 8 11 7 4 4 1 3 9 9 8 7 8 8 8 6 7 5 3 4 7 10 8 8 9 7 7 8 10 10 9 9 9 6 6 8 9 8 7 7 10 10
4 7 5 4 4 6 4 5 4 7 7 6 11 8 7 11 8 8 6 3 2 4 7 8 7 7 8 8 7 7 8 8 9 8 8 7 5 9 9 9 9 8 10 8
5 3 5 6 4 7 7 2 6 2 4 6 6 14 8 7 8 9 7 3 2 6 6 7 7 7 8 7 7 7 7 6 8 8 7 7 8 5 7 8 10 10 9 9
8 5 6 9 1 6 10 6 2 2 3 6 9 9 4 4 7 7 6 2 6 4 5 6 6 6 6 7 7 7 6 5 6 7 7 7 8 6 6 7 9 10 7 6
8 7 5 6 3 10 10 5 3 4 3 1 4 4 3 2 7 8 5 8 5 4 5 5 6 6 5 7 7 6 6 5 6 7 7 8 7 9 9 7 9 9 6 7
6 7 2 6 10 5 11 7 3 2 5 2 6 2 2 4 5 5 6 5 6 5 5 6 6 6 4 6 6 6 5 7 7 6 7 8 8 8 9 9 8 8 7 6
5 6 5 8 6 5 11 9 5 1 4 5 4 2 1 3 11 10 8 7 7 4 4 5 6 5 5 5 4 6 6 7 7 6 6 6 6 7 8 7 8 7 6 5
9 7 8 8 7 1 11 10 6 8 7 5 5 3 2 4 9 10 7 7 6 4 4 5 3 5 3 4 4 5 6 6 6 5 5 5 5 6 5 6 5 5 5 5
5 5 7 6 5 9 10 8 4 8 7 7 4 4 2 6 8 7 8 7 5 4 6 5 4 5 3 1 3 4 5 5 5 5 5 5 5 5 5 5 6 5 4 3
7 8 6 5 6 4 8 2 10 9 7 6 5 4 2 7 8 6 7 6 4 3 4 3 3 5 3 2 3 5 4 4 5 5 5 5 6 7 6 5 5 5 1 1
6 3 6 7 9 6 9 3 9 9 8 7 7 6 5 8 8 7 7 6 4 5 4 4 3 4 4 3 1 2 3 3 4 5 5 5 2 4 5 7 5 6 4 5
6 2 5 8 11 4 8 11 9 10 9 9 8 7 5 8 8 8 7 6 3 4 4 3 3 2 4 4 3 1 2 2 5 4 5 5 6 3 4 2 5 7 5 4
8 7 6 4 9 2 6 7 11 11 11 11 10 10 7 8 9 8 6 6 4 5 4 4 4 3 4 3 4 3 2 3 4 6 6 5 5 6 5 5 2 6 4 5
Wind_Direction
206 226 270 26 15 0 13 20 88 92 13 88 93 106 95 84 101 96 98 82 85 71 85 99 72 54 51 46 39 28 30 12 356 11 5 1 358 352 6 29 26 11 9 3
222 221 57 43 340 285 332 55 331 122 170 140 124 106 108 101 82 85 86 90 97 110 90 75 52 66 57 48 40 32 23 29 16 0 10 359 345 360 359 57 70 41 20 7
209 62 90 236 234 78 307 8 47 116 175 197 84 3 262 112 102 101 103 105 93 65 68 73 75 59 52 55 42 38 32 25 30 3 15 4 352 354 3 356 12 356 27 3
300 105 228 241 140 341 127 339 296 221 225 211 181 158 65 58 113 107 93 74 79 80 84 79 63 49 45 33 48 43 34 26 25 23 13 0 358 358 352 355 7 339 26 11
123 194 219 150 31 347 17 308 295 204 242 123 333 278 285 284 129 109 91 84 84 84 68 60 48 42 28 29 38 43 37 29 22 19 16 4 7 356 359 350 357 350 24 27
124 35 5 59 81 355 298 280 349 13 316 147 225 241 147 166 168 119 101 84 73 79 79 61 36 41 34 34 23 43 26 29 19 17 14 14 5 2 8 352 360 352 357 8
175 152 113 313 289 352 270 312 189 236 246 266 175 283 87 136 88 91 95 97 81 71 59 37 35 17 32 31 20 8 25 21 18 7 14 16 7 8 5 3 11 341 356 357
196 143 159 125 344 337 308 329 323 340 336 348 50 6 153 118 112 105 95 86 82 48 39 24 43 19 20 19 22 8 11 39 9 3 12 22 12 2 8 360 346 348 340 344
156 141 118 66 349 310 354 327 7 302 264 272 187 111 93 130 133 134 107 99 81 57 42 29 40 34 7 1 41 18 14 39 10 13 9 38 5 6 9 343 343 355 339 337
131 176 162 115 256 162 313 351 302 237 317 323 186 85 157 186 150 125 130 121 97 24 44 40 42 37 7 7 31 29 3 52 25 8 29 40 13 357 354 333 351 345 354 348
112 283 122 208 321 359 290 193 347 280 311 322 313 98 28 138 144 150 117 96 113 257 35 39 48 34 21 16 15 39 7 18 20 2 72 33 14 345 345 359 357 15 354 358
111 251 282 80 92 59 4 359 332 328 357 12 275 96 49 107 117 132 118 132 76 20 27 36 40 34 37 22 18 28 19 19 16 356 80 43 6 350 3 360 5 11 3 13
156 197 244 315 161 189 270 84 314 235 269 32 294 62 144 116 123 135 139 102 159 315 45 43 23 35 44 26 28 22 25 15 16 351 48 41 358 357 357 12 19 11 359 13
296 267 287 356 25 353 172 224 312 311 282 345 28 116 132 141 154 147 129 167 89 62 54 50 23 33 49 29 35 23 36 11 12 355 56 40 13 339 7 4 23 19 4 4
232 225 268 31 345 286 338 293 328 313 333 298 10 325 74 149 158 149 144 182 111 55 44 50 43 28 34 33 18 32 39 20 357 5 23 40 54 346 12 8 37 33 359 9
207 222 272 253 228 288 271 171 277 241 313 260 282 47 17 64 119 130 184 182 97 62 50 50 50 43 31 27 10 26 40 13 351 359 14 17 19 38 8 332 39 40 3 14
189 157 237 279 134 303 254 238 95 341 259 353 328 43 47 101 126 171 172 158 63 64 56 52 67 60 35 24 18 23 36 355 357 352 26 8 17 23 36 337 19 41 351 6
192 189 257 281 322 254 72 45 20 307 10 341 278 21 12 178 150 209 142 100 91 71 40 75 78 84 50 29 26 24 19 356 12 2 17 19 7 17 9 15 7 38 14 24
198 215 213 292 273 221 174 138 139 254 89 76 357 358 349 111 171 129 88 87 83 83 81 74 80 87 74 35 15 24 358 23 14 20 12 29 16 18 13 9 6 11 21 9
183 251 269 281 295 287 89 101 111 145 229 95 9 320 248 172 242 132 137 127 108 86 92 111 109 118 78 51 5 26 1 20 16 17 12 25 25 5 10 16 5 348 25 13
197 242 246 257 233 353 113 130 135 245 96 95 59 30 195 242 70 108 119 104 114 108 128 129 152 105 99 71 4 31 17 20 10 360 358 15 13 323 28 352 9 358 9 10
224 230 235 233 291 271 122 143 246 104 132 106 91 45 186 114 145 149 124 115 125 152 139 193 156 136 148 94 12 27 31 359 12 347 0 4 348 337 7 341 353 327 356 355
242 294 0 333 38 108 172 20 123 154 144 149 143 131 150 164 180 172 133 135 122 166 156 174 159 154 167 148 22 356 31 359 2 358 356 343 359 350 333 320 304 302 355 152
190 167 267 291 256 189 187 170 163 177 164 162 155 164 159 181 181 178 148 141 163 152 193 174 185 194 184 196 203 354 349 1 329 353 345 332 301 326 310 310 334 346 318 2
16 146 246 261 255 169 201 191 191 189 174 176 164 172 163 178 187 177 161 167 182 168 167 188 213 219 226 171 238 271 312 307 308 317 319 275 304 239 277 251 336 334 9 337
203 263 230 325 16 288 54 196 196 194 195 190 181 176 168 177 178 180 171 169 190 183 185 187 206 231 262 227 227 233 246 292 302 296 284 5 306 321 304 310 180 239 275 231